DM3FAM-13 Weather Reports


Display with metric or nautical units.
time (UTC)temp
F
wind
direction
speed
MPH
gust
MPH
rain 1hr
in
rain 24hr
in
rain mn
in
humidity
%
barometer
mb
20260502123029 78 187 3.0 7.0 0.00 0.00 0.00 41 1020.0
20260502122029 77 36 2.0 8.0 0.00 0.00 0.00 42 1020.1
20260502121030 77 191 4.0 8.0 0.00 0.00 0.00 42 1020.1
20260502115031 76 162 3.0 6.0 0.00 0.00 0.00 41 1020.5
20260502114030 76 195 1.0 4.0 0.00 0.00 0.00 43 1020.5
20260502113030 76 171 3.0 8.0 0.00 0.00 0.00 42 1020.8
20260502112030 76 174 3.0 6.0 0.00 0.00 0.00 42 1020.7
20260502111030 75 216 3.0 9.0 0.00 0.00 0.00 42 1020.9
20260502110031 76 209 1.0 3.0 0.00 0.00 0.00 42 1021.0
20260502105030 75 202 2.0 7.0 0.00 0.00 0.00 42 1021.1
20260502104030 76 176 2.0 6.0 0.00 0.00 0.00 42 1021.2
20260502103031 76 33 1.0 4.0 0.00 0.00 0.00 44 1021.3
20260502102030 77 181 1.0 3.0 0.00 0.00 0.00 41 1021.5
20260502101030 75 145 0.0 2.0 0.00 0.00 0.00 45 1021.7
20260502091031 70 197 3.0 7.0 0.00 0.00 0.00 48 1022.3
20260502071030 58 198 0.0 2.0 0.00 0.00 0.00 63 1022.8
20260502070031 56 52 0.0 1.0 0.00 0.00 0.00 67 1022.9
20260502065031 54 52 0.0 1.0 0.00 0.00 0.00 67 1022.8
20260502064031 52 51 0.0 1.0 0.00 0.00 0.00 77 1022.9
20260502063031 51 47 1.0 2.0 0.00 0.00 0.00 79 1022.8
20260502062030 50 35 1.0 2.0 0.00 0.00 0.00 80 1022.9
20260502061031 49 32 1.0 2.0 0.00 0.00 0.00 83 1023.0
20260502060030 48 38 0.0 2.0 0.00 0.00 0.00 83 1022.9
20260502055030 47 45 1.0 2.0 0.00 0.00 0.00 83 1023.0
20260502054030 47 0.0 0.0 0.00 0.00 0.00 83 1023.0
20260502053030 46 39 1.0 2.0 0.00 0.00 0.00 82 1023.0
20260502052031 46 25 1.0 1.0 0.00 0.00 0.00 83 1022.9
20260502051029 45 23 0.0 1.0 0.00 0.00 0.00 83 1022.8
20260502050031 45 39 0.0 1.0 0.00 0.00 0.00 84 1022.9
20260502045030 44 43 1.0 2.0 0.00 0.00 0.00 85 1022.8
20260502044030 43 43 0.0 1.0 0.00 0.00 0.00 84 1022.8
20260502043030 43 43 1.0 2.0 0.00 0.00 0.00 85 1022.8
20260502042030 43 0.0 1.0 0.00 0.00 0.00 84 1022.9
20260502041030 42 35 1.0 2.0 0.00 0.00 0.00 84 1022.9
20260502040031 43 38 1.0 1.0 0.00 0.00 0.00 84 1022.9
20260502035031 43 33 0.0 2.0 0.00 0.00 0.00 84 1022.9
20260502034030 42 0.0 1.0 0.00 0.00 0.00 84 1022.8
20260502033031 43 32 2.0 2.0 0.00 0.00 0.00 82 1022.9
20260502032031 43 29 0.0 1.0 0.00 0.00 0.00 82 1022.8
20260502031030 43 37 1.0 2.0 0.00 0.00 0.00 82 1022.8
20260502030030 43 49 1.0 2.0 0.00 0.00 0.00 83 1022.9
20260502025030 43 49 0.0 1.0 0.00 0.00 0.00 82 1022.9
20260502024030 43 0.0 1.0 0.00 0.00 0.00 82 1023.0
20260502022029 45 0.0 1.0 0.00 0.00 0.00 79 1022.9
20260502021029 46 52 1.0 2.0 0.00 0.00 0.00 76 1022.9
20260502020030 46 32 1.0 2.0 0.00 0.00 0.00 76 1022.9
20260502015030 45 40 1.0 2.0 0.00 0.00 0.00 76 1022.9
20260502014030 45 37 2.0 3.0 0.00 0.00 0.00 78 1023.1
20260502013030 45 33 1.0 2.0 0.00 0.00 0.00 77 1023.1
20260502012030 45 36 0.0 2.0 0.00 0.00 0.00 76 1023.1
20260502011030 46 30 1.0 2.0 0.00 0.00 0.00 75 1023.1
20260502010031 46 39 1.0 2.0 0.00 0.00 0.00 74 1023.1
20260502005030 46 40 2.0 3.0 0.00 0.00 0.00 75 1023.3
20260502004030 46 30 1.0 2.0 0.00 0.00 0.00 75 1023.3
20260502003030 46 34 1.0 3.0 0.00 0.00 0.00 74 1023.3
20260502002030 47 42 1.0 2.0 0.00 0.00 0.00 72 1023.5
20260502001030 46 38 2.0 3.0 0.00 0.00 0.00 74 1023.4
20260502000031 45 29 1.0 2.0 0.00 0.00 0.00 78 1023.5
20260501235031 45 31 1.0 3.0 0.00 0.00 0.00 78 1023.7
20260501234031 45 16 1.0 2.0 0.00 0.00 0.00 77 1023.6
20260501233031 46 20 1.0 2.0 0.00 0.00 0.00 75 1023.6
20260501232030 46 26 1.0 2.0 0.00 0.00 0.00 74 1023.7
20260501231031 46 26 1.0 2.0 0.00 0.00 0.00 73 1023.7
20260501230031 46 37 1.0 1.0 0.00 0.00 0.00 75 1023.8
20260501225030 46 29 1.0 3.0 0.00 0.00 0.00 75 1023.8
20260501224030 46 30 0.0 1.0 0.00 0.00 0.00 73 1023.7
20260501223031 47 34 1.0 2.0 0.00 0.00 0.00 73 1023.7
20260501222030 48 30 0.0 2.0 0.00 0.00 0.00 70 1023.8
20260501221030 49 25 1.0 3.0 0.00 0.00 0.00 70 1023.7
20260501220030 48 36 1.0 3.0 0.00 0.00 0.00 69 1023.8
20260501215031 47 23 2.0 3.0 0.00 0.00 0.00 72 1023.6
20260501214031 47 22 1.0 2.0 0.00 0.00 0.00 72 1023.7
20260501213030 46 31 2.0 3.0 0.00 0.00 0.00 75 1023.6
20260501212030 47 32 1.0 2.0 0.00 0.00 0.00 73 1023.6
20260501211030 47 41 1.0 2.0 0.00 0.00 0.00 73 1023.6
20260501210031 48 31 1.0 2.0 0.00 0.00 0.00 72 1023.7
20260501205031 48 37 1.0 3.0 0.00 0.00 0.00 74 1023.5
20260501204030 47 26 1.0 2.0 0.00 0.00 0.00 76 1023.5
20260501203031 48 29 1.0 2.0 0.00 0.00 0.00 75 1023.4
20260501202030 49 35 2.0 3.0 0.00 0.00 0.00 73 1023.5
20260501201030 50 31 1.0 2.0 0.00 0.00 0.00 71 1023.7
20260501200030 50 36 1.0 3.0 0.00 0.00 0.00 73 1023.6
20260501195030 51 36 3.0 3.0 0.00 0.00 0.00 71 1023.4
20260501194030 51 37 1.0 3.0 0.00 0.00 0.00 73 1023.5
20260501193030 51 39 2.0 3.0 0.00 0.00 0.00 73 1023.3
20260501192030 52 31 1.0 2.0 0.00 0.00 0.00 72 1023.3
20260501191030 53 27 1.0 3.0 0.00 0.00 0.00 71 1023.3
20260501190030 54 37 2.0 3.0 0.00 0.00 0.00 69 1023.3
20260501185030 55 37 1.0 3.0 0.00 0.00 0.00 67 1023.1
20260501184030 56 38 1.0 3.0 0.00 0.00 0.00 66 1023.0
20260501183030 57 37 2.0 3.0 0.00 0.00 0.00 65 1022.8
20260501182030 58 39 2.0 3.0 0.00 0.00 0.00 63 1022.7
20260501181030 59 42 1.0 3.0 0.00 0.00 0.00 63 1022.6
20260501180031 60 31 1.0 3.0 0.00 0.00 0.00 59 1022.5
20260501175031 60 36 0.0 2.0 0.00 0.00 0.00 60 1022.4
20260501174031 61 32 1.0 3.0 0.00 0.00 0.00 58 1022.3
20260501173030 61 39 1.0 2.0 0.00 0.00 0.00 59 1022.3
20260501172030 63 41 1.0 2.0 0.00 0.00 0.00 58 1022.3
20260501171030 64 43 1.0 3.0 0.00 0.00 0.00 55 1022.3
20260501170030 65 44 1.0 3.0 0.00 0.00 0.00 51 1022.2
20260501165030 65 42 1.0 2.0 0.00 0.00 0.00 50 1022.3
20260501164030 68 35 2.0 3.0 0.00 0.00 0.00 48 1022.2
20260501163030 71 42 1.0 2.0 0.00 0.00 0.00 40 1022.3
20260501162030 72 31 1.0 4.0 0.00 0.00 0.00 36 1022.3
20260501161029 75 57 1.0 2.0 0.00 0.00 0.00 34 1022.3
20260501160030 76 246 1.0 2.0 0.00 0.00 0.00 33 1022.3
20260501155030 76 226 2.0 4.0 0.00 0.00 0.00 32 1022.3
20260501154030 77 211 1.0 2.0 0.00 0.00 0.00 31 1022.4
20260501153031 77 228 1.0 3.0 0.00 0.00 0.00 32 1022.4
20260501152030 76 238 0.0 3.0 0.00 0.00 0.00 32 1022.5
20260501151030 76 176 2.0 4.0 0.00 0.00 0.00 32 1022.5
20260501150031 76 191 3.0 7.0 0.00 0.00 0.00 32 1022.7